TimeCDT,TemperatureF,Dew PointF,Humidity,Sea Level PressureIn,VisibilityMPH,Wind Direction,Wind SpeedMPH,Gust SpeedMPH,PrecipitationIn,Events,Conditions,WindDirDegrees,DateUTC
12:13 AM,41.0,41.0,100,29.73,2.5,East,8.1,-,N/A,,Overcast,90,2013-04-08 05:13:00
12:33 AM,41.0,41.0,100,29.72,2.0,East,5.8,-,N/A,,Overcast,90,2013-04-08 05:33:00
12:52 AM,42.8,42.8,100,29.72,2.0,East,5.8,-,N/A,,Overcast,100,2013-04-08 05:52:00
1:13 AM,42.8,42.8,100,29.72,1.8,East,4.6,-,N/A,,Overcast,90,2013-04-08 06:13:00
1:33 AM,42.8,42.8,100,29.72,2.0,East,6.9,-,N/A,,Overcast,100,2013-04-08 06:33:00
1:52 AM,42.8,42.8,100,29.71,2.0,East,4.6,-,N/A,,Overcast,80,2013-04-08 06:52:00
2:13 AM,42.8,42.8,100,29.71,2.0,ENE,3.5,-,N/A,Rain,Rain,70,2013-04-08 07:13:00
2:33 AM,42.8,42.8,100,29.71,1.5,NE,3.5,-,N/A,Rain,Light Rain,40,2013-04-08 07:33:00
2:52 AM,42.8,42.8,100,29.71,1.5,ENE,4.6,-,N/A,Rain,Rain,70,2013-04-08 07:52:00
3:13 AM,41.0,41.0,100,29.70,0.8,NE,5.8,-,N/A,Rain,Light Rain,50,2013-04-08 08:13:00
3:33 AM,41.0,41.0,100,29.70,2.0,East,6.9,-,N/A,,Overcast,90,2013-04-08 08:33:00
3:52 AM,41.0,41.0,100,29.70,1.5,NE,3.5,-,N/A,,Overcast,40,2013-04-08 08:52:00
4:13 AM,41.0,41.0,100,29.69,0.5,ENE,5.8,-,N/A,Fog,Fog,70,2013-04-08 09:13:00
4:33 AM,39.2,39.2,100,29.70,0.5,NNE,3.5,-,N/A,Fog,Fog,30,2013-04-08 09:33:00
4:52 AM,39.2,39.2,100,29.69,0.5,NNE,5.8,-,N/A,Fog,Fog,30,2013-04-08 09:52:00
5:13 AM,39.2,39.2,100,29.68,0.8,NE,6.9,-,N/A,,Overcast,40,2013-04-08 10:13:00
5:33 AM,39.2,39.2,100,29.68,0.8,NNE,5.8,-,N/A,,Overcast,30,2013-04-08 10:33:00
5:52 AM,39.2,39.2,100,29.69,0.5,NNE,5.8,-,N/A,Fog,Fog,30,2013-04-08 10:52:00
6:13 AM,37.4,37.4,100,29.69,0.5,NNE,5.8,-,N/A,Fog,Fog,20,2013-04-08 11:13:00
6:33 AM,37.4,37.4,100,29.69,0.5,NNE,6.9,-,N/A,Fog,Fog,30,2013-04-08 11:33:00
6:52 AM,37.4,37.4,100,29.70,0.5,NNE,6.9,-,N/A,Fog,Fog,30,2013-04-08 11:52:00
7:13 AM,37.4,37.4,100,29.71,0.2,North,5.8,-,N/A,Fog,Fog,360,2013-04-08 12:13:00
7:33 AM,37.4,37.4,100,29.73,0.2,NNE,9.2,-,N/A,Fog,Fog,20,2013-04-08 12:33:00
7:52 AM,37.4,37.4,100,29.74,0.5,NNE,9.2,-,N/A,Fog,Fog,20,2013-04-08 12:52:00
8:13 AM,37.4,37.4,100,29.74,1.0,North,8.1,-,N/A,,Overcast,10,2013-04-08 13:13:00
8:33 AM,37.4,37.4,100,29.75,1.5,NNE,6.9,-,N/A,,Drizzle,30,2013-04-08 13:33:00
8:52 AM,37.4,37.4,100,29.75,1.8,NE,8.1,-,N/A,,Drizzle,50,2013-04-08 13:52:00
9:13 AM,37.4,37.4,100,29.76,2.5,NNE,4.6,-,N/A,,Overcast,20,2013-04-08 14:13:00
9:33 AM,37.4,37.4,100,29.76,3.0,NNE,4.6,-,N/A,,Overcast,30,2013-04-08 14:33:00
9:53 AM,39.2,39.2,100,29.75,4.0,NE,6.9,-,N/A,,Overcast,40,2013-04-08 14:53:00
10:13 AM,39.2,39.2,100,29.76,4.0,NE,8.1,-,N/A,,Overcast,40,2013-04-08 15:13:00
10:33 AM,39.2,39.2,100,29.76,4.0,NE,8.1,-,N/A,,Overcast,40,2013-04-08 15:33:00
10:53 AM,39.2,39.2,100,29.77,4.0,NE,6.9,-,N/A,,Overcast,40,2013-04-08 15:53:00
11:13 AM,39.2,39.2,100,29.77,3.0,NE,6.9,-,N/A,,Overcast,50,2013-04-08 16:13:00
11:33 AM,41.0,41.0,100,29.78,5.0,NNE,6.9,-,N/A,,Overcast,30,2013-04-08 16:33:00
11:53 AM,42.8,42.8,100,29.78,5.0,North,9.2,-,N/A,,Overcast,10,2013-04-08 16:53:00
12:13 PM,42.8,42.8,100,29.79,10.0,NNE,10.4,-,N/A,,Overcast,30,2013-04-08 17:13:00
12:33 PM,42.8,42.8,100,29.80,10.0,NE,6.9,-,N/A,,Overcast,50,2013-04-08 17:33:00
12:52 PM,42.8,42.8,100,29.80,10.0,NNE,9.2,-,N/A,,Overcast,30,2013-04-08 17:52:00
1:13 PM,42.8,42.8,100,29.81,10.0,NNE,5.8,-,N/A,,Overcast,30,2013-04-08 18:13:00
1:33 PM,42.8,42.8,100,29.82,10.0,NNE,6.9,-,N/A,,Overcast,20,2013-04-08 18:33:00
1:53 PM,42.8,42.8,100,29.83,10.0,NNE,8.1,-,N/A,,Overcast,20,2013-04-08 18:53:00
2:13 PM,42.8,42.8,100,29.83,10.0,NNE,5.8,-,N/A,,Overcast,20,2013-04-08 19:13:00
2:33 PM,42.8,42.8,100,29.83,10.0,NNE,8.1,-,N/A,,Overcast,30,2013-04-08 19:33:00
2:53 PM,44.6,42.8,93,29.82,10.0,NE,8.1,-,N/A,,Overcast,50,2013-04-08 19:53:00
3:12 PM,42.8,42.8,100,29.82,10.0,NNE,10.4,-,N/A,,Overcast,20,2013-04-08 20:12:00
3:33 PM,42.8,42.8,100,29.83,10.0,NNE,8.1,-,N/A,,Overcast,30,2013-04-08 20:33:00
3:52 PM,44.6,42.8,93,29.84,10.0,North,8.1,-,N/A,,Overcast,10,2013-04-08 20:52:00
4:13 PM,44.6,42.8,93,29.85,10.0,NNE,9.2,-,N/A,,Overcast,20,2013-04-08 21:13:00
4:33 PM,42.8,42.8,100,29.86,10.0,North,10.4,-,N/A,,Overcast,10,2013-04-08 21:33:00
4:52 PM,42.8,42.8,100,29.88,10.0,North,9.2,-,N/A,,Overcast,10,2013-04-08 21:52:00
5:13 PM,42.8,41.0,93,29.90,10.0,North,8.1,-,N/A,,Overcast,10,2013-04-08 22:13:00
5:33 PM,42.8,41.0,93,29.90,10.0,North,10.4,-,N/A,,Overcast,10,2013-04-08 22:33:00
5:53 PM,42.8,41.0,93,29.91,10.0,North,10.4,-,N/A,,Overcast,10,2013-04-08 22:53:00
6:13 PM,42.8,39.2,87,29.93,10.0,NNE,11.5,-,N/A,,Overcast,20,2013-04-08 23:13:00
6:33 PM,42.8,39.2,87,29.94,10.0,North,8.1,-,N/A,,Overcast,10,2013-04-08 23:33:00
6:53 PM,42.8,39.2,87,29.94,10.0,NNE,13.8,-,N/A,,Overcast,20,2013-04-08 23:53:00
7:13 PM,42.8,39.2,87,29.96,10.0,NNE,9.2,-,N/A,,Overcast,30,2013-04-09 00:13:00
7:33 PM,42.8,39.2,87,29.97,10.0,NNE,8.1,-,N/A,,Overcast,30,2013-04-09 00:33:00
7:52 PM,42.8,39.2,87,29.98,10.0,NNE,13.8,18.4,N/A,,Overcast,20,2013-04-09 00:52:00
8:13 PM,42.8,39.2,87,29.98,10.0,NNE,11.5,-,N/A,,Overcast,20,2013-04-09 01:13:00
8:32 PM,42.8,39.2,87,29.98,10.0,NNE,12.7,-,N/A,,Overcast,20,2013-04-09 01:32:00
8:53 PM,41.0,39.2,93,29.98,10.0,NNE,9.2,-,N/A,,Overcast,30,2013-04-09 01:53:00
9:13 PM,41.0,37.4,87,29.99,10.0,NNE,11.5,16.1,N/A,,Overcast,20,2013-04-09 02:13:00
9:32 PM,41.0,37.4,87,30.00,10.0,North,10.4,-,N/A,,Overcast,10,2013-04-09 02:32:00
9:53 PM,39.2,37.4,93,30.01,10.0,NNE,11.5,-,N/A,,Overcast,30,2013-04-09 02:53:00
10:13 PM,39.2,37.4,93,30.03,10.0,NNE,9.2,-,N/A,,Overcast,30,2013-04-09 03:13:00
10:32 PM,39.2,37.4,93,30.04,10.0,NNE,8.1,-,N/A,,Overcast,30,2013-04-09 03:32:00
10:53 PM,39.2,37.4,93,30.05,10.0,NNE,6.9,-,N/A,,Overcast,30,2013-04-09 03:53:00
11:13 PM,39.2,37.4,93,30.06,10.0,North,6.9,-,N/A,,Overcast,10,2013-04-09 04:13:00
11:32 PM,39.2,37.4,93,30.05,10.0,NNE,10.4,-,N/A,,Overcast,20,2013-04-09 04:32:00
11:53 PM,39.2,37.4,93,30.04,10.0,NNE,12.7,-,N/A,,Overcast,20,2013-04-09 04:53:00